{"data":{"norad_id":54662,"epoch":"2026-05-25T05:15:01.111104Z","epoch_age_seconds":59692,"freshness":"FRESH","line1":"1 54662U 22166W   26145.21876286  .00000073  00000+0  14516-3 0  9997","line2":"2 54662  87.9253 248.5543 0001926 102.6300 257.5049 13.21825329168508","mean_motion":13.21825329,"eccentricity":0.0001926,"inclination_deg":87.9253,"raan_deg":248.5543,"arg_perigee_deg":102.63,"mean_anomaly_deg":257.5049,"bstar":0.00014516,"rev_number":16850,"period_min":108.94026377066,"perigee_km":1176.3006604615,"apogee_km":1179.2111904164,"semimajor_km":7555.892925439,"source":"CELESTRAK","updated_at":"2026-05-25T13:38:22.634179Z"}}